Location: Bolzano
(46.5170°N, 11.3670°E)
Time: 00:37:25
(UTC+01:00)

ISS - Pass Details

Date: 08 December 2021
Orbit: 413 x 422 km, 51.6° (Epoch: 24 January)

Event Time Altitude Azimuth Distance (km) Brightness Sun altitude
Rises 17:54:50 0° 290° (WNW) 2,381 1.0 -14.4°
Reaches altitude 10° 17:57:14 10° 275° (W) 1,510 0.2 -14.8°
Maximum altitude 17:59:55 22° 222° (SW) 973 -1.2 -15.2°
Drops below altitude 10° 18:02:36 10° 169° (S) 1,497 -0.9 -15.7°
Enters shadow 18:05:59 -3° 150° (SSE) 2,747 0.3 -16.2°
